Location: Paderno d�Adda
(45.6667°N, 9.4333°E)
Time: 20:57:14
(UTC+00:00)

ARIANE 5 R/B - Pass Details

Date: 19 September 2020
Orbit: 620 x 657 km, 98.2° (Epoch: 23 October)

Event Time Altitude Azimuth Distance (km) Brightness Sun altitude
Exits shadow 20:01:02 36° 13° (NNE) 995 3.7 -26.6°
Drops below altitude 10° 20:03:47 10° 354° (N) 2,001 5.6 -27.0°
Sets 20:06:00 0° 351° (N) 2,910 6.6 -27.3°
